Wind_Speed
12 16 13 12 15 16 16 15 16 15 16 15 14 16 15 13 13 12 11 14 16 16 17 20 16 11 8 5 5 6 6 3 1 3 6 6 6 8 5 4 2 3 4
15 14 11 12 12 12 12 14 13 14 14 13 12 13 8 10 13 11 13 14 15 17 17 19 17 14 9 7 7 4 5 5 2 2 5 5 8 8 6 5 5 4 3
14 11 12 13 15 15 15 12 13 12 13 11 12 14 15 14 13 14 14 15 16 15 16 19 19 15 12 10 8 6 4 3 2 3 4 3 3 6 10 8 7 8 7
20 14 16 17 15 13 14 14 12 13 14 15 16 17 15 14 13 13 12 12 15 15 16 18 20 16 14 11 9 6 5 4 2 2 2 2 3 1 1 9 11 12 10
16 16 16 14 13 14 14 14 14 14 13 13 15 17 18 15 14 12 11 11 14 14 17 19 21 19 16 12 11 8 7 6 4 4 0 1 4 4 4 4 6 15 13
16 16 13 14 15 15 16 16 16 16 16 15 17 18 17 16 18 15 13 13 13 16 17 20 22 20 17 14 11 10 8 7 6 6 5 4 2 4 5 5 7 10 16
19 16 14 13 14 16 16 18 20 19 17 18 19 20 18 16 18 16 15 14 14 17 18 21 25 22 18 15 14 10 10 10 9 9 8 8 7 8 7 8 11 10 12
15 16 14 14 14 14 16 17 21 21 19 21 16 14 14 16 17 16 15 15 14 15 17 20 23 24 23 20 16 15 12 13 12 11 12 10 10 10 10 10 11 9 9
8 10 11 12 14 17 18 9 9 6 18 21 15 13 12 13 14 14 15 16 14 15 17 21 25 23 23 22 18 17 14 14 13 13 12 11 12 12 12 12 11 10 7
6 7 10 12 14 15 16 19 18 15 17 20 20 14 11 12 12 13 16 17 16 16 17 22 25 25 24 24 21 20 20 18 16 16 15 15 15 16 13 12 10 9 11
11 7 4 2 3 7 10 12 15 14 15 16 16 20 15 14 13 13 15 18 17 19 20 20 23 25 24 24 23 22 20 19 19 20 19 20 18 16 15 14 15 11 12
14 12 11 12 12 13 13 9 4 6 9 12 14 16 17 14 16 15 18 19 20 20 22 23 24 24 24 24 24 22 22 24 24 24 24 21 19 18 17 16 17 16 14
15 15 13 14 15 17 17 17 16 14 12 11 11 8 10 10 17 17 21 20 19 21 24 26 28 28 28 28 28 28 25 25 29 27 23 24 23 22 19 19 19 19 18
14 12 11 10 9 10 11 11 12 14 13 13 14 12 10 9 10 12 20 25 23 22 22 25 29 31 30 31 30 29 28 28 26 27 25 26 26 25 23 22 22 21 19
14 10 7 6 5 6 8 9 12 13 15 16 14 12 10 9 11 12 14 17 21 27 28 28 27 28 34 32 32 30 29 29 28 27 32 28 28 28 24 24 23 21 22
11 8 4 3 2 3 6 8 12 15 18 13 11 10 11 10 10 14 16 17 19 21 24 25 28 31 29 33 35 33 33 32 31 32 30 31 30 29 28 26 26 25 24
7 4 3 3 1 3 7 11 15 15 17 19 17 16 15 15 14 15 16 18 19 21 22 23 22 26 31 31 31 34 38 36 35 35 33 33 33 31 30 28 28 29 27
6 4 3 3 6 11 13 13 15 16 18 18 19 20 20 22 21 21 21 22 23 25 25 25 25 23 24 28 32 34 36 40 40 37 35 34 34 33 32 31 30 30 30
6 5 4 6 9 12 15 18 20 22 26 28 29 27 26 26 26 27 28 29 28 28 29 28 28 26 27 26 25 26 31 32 39 38 40 35 34 33 31 30 31 31 32
3 3 6 9 13 18 21 24 26 28 28 28 29 28 27 28 31 32 34 34 33 32 32 33 33 33 32 27 28 27 28 28 32 34 50 42 32 32 29 29 30 34 31
4 9 12 16 18 20 21 22 23 23 23 25 26 27 26 27 28 29 30 31 32 33 35 36 34 32 32 32 27 28 29 29 29 32 34 37 36 37 34 32 31 31 29
10 14 18 21 22 21 22 23 23 23 24 26 27 28 28 29 30 30 30 29 29 32 34 35 35 33 30 31 31 27 28 29 28 28 30 31 41 40 34 34 36 35 32
14 17 18 18 16 17 19 23 23 24 26 28 28 29 30 30 30 31 31 31 29 29 31 33 34 33 32 29 28 28 29 26 24 22 21 27 25 32 37 36 34 34 35
11 13 14 17 19 21 23 23 23 24 26 29 31 32 30 30 29 30 30 28 27 28 29 29 30 31 30 27 26 26 26 24 23 27 25 22 21 28 35 49 39 43 42
11 13 15 17 20 21 21 21 21 23 26 29 30 29 27 27 30 30 27 24 23 23 25 26 26 28 29 27 22 21 23 24 24 25 30 27 27 32 45 52 52 50 46
12 13 14 15 17 18 19 20 21 23 24 26 26 25 25 25 25 23 21 20 20 20 21 23 25 27 29 28 24 21 19 23 22 24 28 32 35 40 40 39 42 48 50
Wind_Direction
169 192 213 212 212 217 224 221 224 221 223 228 226 223 232 240 244 240 230 230 235 233 225 219 224 232 249 262 269 297 287 283 346 216 225 219 185 178 179 189 173 127 156
201 201 224 212 206 207 219 225 225 225 228 229 233 236 246 256 254 257 239 232 232 237 236 223 222 230 247 262 266 295 287 271 280 191 186 198 199 199 198 206 200 187 182
196 203 211 208 211 208 212 218 225 223 227 238 243 249 250 258 261 255 246 233 236 246 234 224 219 227 242 252 258 276 301 299 261 264 212 179 208 209 221 217 214 200 195
205 210 212 215 221 220 227 231 230 234 237 240 247 255 263 265 276 282 266 243 243 241 223 223 221 227 235 247 245 267 283 306 31 306 193 245 218 227 265 227 226 220 213
203 214 213 223 234 238 240 242 243 245 244 252 256 258 265 271 275 276 259 248 237 233 229 221 219 226 233 244 241 262 277 292 293 326 12 258 269 284 286 254 244 233 225
208 210 222 235 246 250 253 252 252 253 253 258 261 264 267 272 272 267 255 249 244 236 229 224 217 222 231 238 242 246 268 274 298 298 315 328 7 328 317 278 276 266 238
220 214 223 241 258 263 263 258 259 262 262 265 267 266 267 274 270 265 259 256 251 240 235 225 220 223 230 242 243 245 261 264 275 278 286 282 288 293 304 290 284 273 245
230 231 235 252 264 282 285 288 270 257 264 266 271 273 268 274 268 259 254 259 259 245 241 230 223 227 233 240 247 247 255 259 264 272 269 274 277 279 271 287 303 261 261
241 246 239 251 266 280 277 257 290 271 265 271 284 279 295 284 279 267 258 254 256 245 239 232 229 229 233 237 244 248 252 260 261 268 265 270 272 277 271 276 301 253 263
185 219 236 250 265 273 275 280 289 285 268 274 271 284 293 304 289 274 256 255 256 249 237 233 230 230 235 236 242 250 252 258 255 255 262 263 268 275 272 263 271 272 254
124 118 103 71 325 298 284 277 268 274 279 287 291 287 285 293 294 281 274 262 255 250 243 236 229 232 233 235 241 245 251 255 259 255 258 258 261 261 262 259 257 260 270
119 111 95 82 67 54 44 37 331 288 283 286 284 282 284 284 273 276 272 268 260 253 249 246 241 240 241 240 241 243 251 253 257 267 253 254 254 255 260 254 256 260 269
124 116 106 90 80 71 63 55 49 42 37 30 17 335 296 268 263 254 269 271 267 259 254 249 246 244 245 246 248 254 256 259 260 251 250 253 250 252 254 256 255 257 262
136 127 115 103 91 76 63 48 27 16 6 359 354 347 331 327 291 265 258 259 261 263 263 259 255 252 250 251 251 254 258 258 254 240 249 252 249 249 253 256 254 253 255
148 134 128 109 74 43 34 30 15 2 351 344 348 353 343 311 294 290 278 268 264 263 263 260 259 257 252 253 256 256 256 257 254 251 250 255 252 251 251 250 249 251 251
150 141 121 47 39 52 15 350 334 330 333 334 335 338 337 329 309 290 287 284 280 282 278 273 261 260 257 253 257 259 259 257 256 254 259 255 252 249 250 249 246 245 247
157 149 147 190 276 337 327 317 315 311 312 311 313 313 308 304 297 291 288 293 293 284 281 285 282 271 261 258 261 259 257 258 255 254 257 254 253 247 245 249 249 244 246
165 179 212 265 298 310 304 301 298 298 299 298 300 300 297 293 287 283 283 288 291 292 291 282 283 282 273 267 261 260 260 255 253 256 254 250 251 249 248 250 250 245 247
183 205 253 293 295 293 293 295 295 294 295 299 299 298 293 286 281 280 282 286 287 284 283 282 281 280 275 275 275 274 266 261 254 253 254 251 246 250 248 252 252 251 248
179 264 287 296 298 296 297 299 301 301 303 301 299 298 295 289 286 283 282 283 283 280 279 277 277 277 276 275 270 272 275 271 259 237 257 249 246 246 247 248 253 251 250
284 297 301 305 308 310 307 304 304 308 303 298 296 296 298 297 293 292 285 282 281 279 277 278 279 277 270 269 273 263 266 269 265 260 258 245 251 242 239 241 245 248 255
307 306 306 305 307 309 307 306 306 305 303 300 299 299 299 299 297 299 296 291 284 280 277 278 280 274 272 269 268 271 259 263 264 256 258 254 241 241 238 245 245 246 249
312 313 314 315 316 314 315 313 310 305 302 298 298 302 303 301 297 294 294 294 289 283 280 276 279 277 272 273 266 269 261 261 264 256 244 218 267 235 252 248 249 249 244
320 319 317 314 312 310 309 309 308 306 303 303 301 304 306 306 300 298 294 290 288 289 285 281 278 276 276 270 265 267 259 264 254 243 247 249 248 226 232 240 244 249 244
320 317 315 312 313 315 315 315 314 315 315 313 311 311 315 315 307 299 296 290 289 288 286 282 281 276 277 269 270 269 258 258 258 260 257 252 241 241 241 244 244 246 249
323 319 318 321 329 332 330 327 327 323 324 326 327 322 319 317 316 314 308 296 296 296 288 283 278 277 275 267 261 265 263 257 254 253 253 252 245 250 257 259 257 254 248
Height
1526 1527 1531 1534 1536 1538 1542 1544 1547 1548 1550 1551 1552 1552 1553 1555 1556 1559 1559 1561 1562 1563 1565 1568 1571 1572 1574 1575 1575 1575 1575 1575 1575 1575 1575 1576 1577 1578 1579 1580 1580 1580 1580
1527 1529 1531 1533 1536 1539 1540 1542 1546 1548 1549 1550 1550 1552 1553 1554 1555 1557 1557 1558 1558 1561 1563 1565 1569 1572 1574 1574 1574 1574 1575 1575 1575 1575 1575 1575 1577 1577 1578 1579 1579 1580 1580
1526 1528 1531 1533 1536 1537 1538 1541 1543 1546 1547 1550 1550 1550 1551 1552 1553 1554 1555 1556 1557 1559 1561 1564 1567 1570 1572 1573 1574 1574 1574 1574 1574 1574 1575 1575 1575 1575 1575 1576 1577 1578 1579
1525 1527 1530 1533 1535 1537 1539 1542 1543 1545 1547 1548 1548 1549 1549 1550 1552 1553 1554 1555 1556 1557 1558 1562 1565 1569 1571 1572 1573 1573 1573 1574 1573 1573 1573 1573 1574 1574 1574 1574 1575 1576 1578
1524 1526 1528 1531 1535 1537 1539 1541 1542 1543 1544 1545 1546 1546 1547 1548 1550 1551 1551 1552 1553 1555 1557 1559 1563 1566 1569 1570 1571 1572 1572 1572 1572 1572 1572 1571 1572 1572 1572 1572 1573 1574 1575
1522 1524 1528 1531 1533 1535 1537 1538 1540 1540 1542 1543 1544 1544 1545 1546 1548 1549 1550 1551 1551 1552 1555 1557 1560 1563 1566 1567 1569 1570 1571 1572 1572 1572 1571 1571 1571 1571 1570 1570 1570 1570 1571
1522 1524 1526 1529 1530 1531 1532 1534 1536 1537 1539 1541 1542 1543 1544 1545 1546 1547 1549 1550 1550 1551 1552 1554 1557 1560 1563 1565 1566 1568 1569 1569 1570 1570 1570 1570 1570 1570 1569 1569 1568 1568 1568
1521 1523 1525 1527 1528 1528 1528 1531 1532 1535 1538 1540 1541 1541 1542 1543 1544 1545 1547 1548 1549 1549 1550 1552 1554 1557 1560 1562 1563 1565 1566 1566 1567 1568 1568 1567 1567 1567 1567 1567 1567 1566 1566
1519 1522 1524 1525 1526 1525 1525 1530 1525 1530 1534 1537 1538 1538 1538 1540 1543 1544 1545 1545 1545 1546 1546 1547 1549 1551 1554 1557 1559 1561 1562 1563 1564 1565 1565 1565 1565 1565 1565 1565 1565 1565 1566
1519 1521 1523 1523 1524 1524 1524 1524 1526 1528 1532 1533 1535 1535 1538 1539 1540 1540 1540 1541 1543 1543 1543 1543 1544 1547 1549 1551 1554 1556 1558 1559 1560 1561 1561 1562 1562 1562 1563 1563 1563 1563 1564
1519 1521 1522 1522 1522 1522 1523 1524 1525 1526 1529 1530 1534 1535 1535 1538 1539 1538 1538 1538 1539 1541 1541 1542 1542 1543 1544 1546 1548 1551 1553 1554 1555 1556 1556 1557 1558 1558 1559 1561 1561 1561 1561
1519 1521 1524 1523 1522 1522 1522 1523 1525 1526 1527 1527 1530 1532 1529 1522 1531 1531 1530 1535 1535 1538 1540 1541 1541 1541 1541 1543 1544 1545 1547 1548 1550 1551 1551 1552 1553 1554 1555 1556 1558 1558 1558
1519 1522 1524 1525 1524 1524 1524 1525 1527 1527 1528 1529 1529 1529 1530 1529 1530 1528 1528 1530 1531 1532 1534 1535 1535 1535 1536 1537 1539 1540 1541 1541 1542 1544 1546 1547 1548 1549 1550 1552 1553 1554 1555
1520 1522 1524 1525 1526 1526 1526 1526 1528 1528 1528 1529 1528 1527 1526 1525 1525 1525 1524 1526 1524 1526 1528 1528 1528 1528 1529 1530 1532 1533 1534 1535 1535 1537 1539 1540 1541 1543 1545 1546 1548 1549 1550
1520 1522 1524 1526 1526 1526 1525 1526 1526 1526 1526 1527 1526 1525 1524 1523 1522 1522 1521 1519 1518 1520 1520 1520 1519 1520 1521 1522 1524 1526 1527 1528 1530 1531 1532 1533 1534 1537 1538 1540 1542 1543 1544
1521 1522 1524 1525 1526 1526 1525 1525 1524 1524 1523 1523 1524 1523 1523 1521 1520 1519 1518 1517 1515 1514 1512 1511 1511 1511 1512 1513 1516 1518 1519 1520 1521 1522 1524 1525 1526 1528 1531 1533 1535 1536 1537
1521 1522 1524 1526 1526 1524 1524 1524 1523 1522 1521 1520 1519 1519 1518 1518 1517 1516 1514 1512 1510 1508 1506 1504 1504 1503 1504 1506 1507 1508 1509 1509 1510 1511 1513 1515 1517 1520 1523 1526 1528 1528 1530
1522 1524 1524 1525 1524 1522 1522 1522 1520 1519 1518 1517 1515 1513 1511 1510 1510 1509 1508 1506 1504 1501 1499 1498 1497 1496 1496 1496 1496 1498 1500 1498 1500 1502 1504 1504 1508 1511 1515 1518 1520 1521 1522
1523 1523 1523 1521 1520 1520 1519 1517 1516 1514 1512 1509 1507 1505 1504 1503 1502 1500 1499 1497 1495 1493 1491 1490 1489 1488 1489 1489 1489 1488 1487 1488 1487 1491 1496 1497 1498 1503 1508 1510 1512 1514 1515
1520 1520 1520 1519 1518 1517 1515 1512 1509 1506 1505 1501 1498 1497 1496 1495 1493 1492 1490 1488 1487 1484 1483 1480 1480 1479 1479 1481 1481 1481 1479 1479 1481 1467 1482 1490 1487 1493 1499 1500 1502 1503 1507
1517 1517 1516 1515 1513 1510 1508 1505 1503 1501 1498 1495 1493 1491 1489 1487 1485 1482 1481 1479 1476 1475 1473 1471 1470 1470 1470 1470 1471 1472 1470 1470 1471 1472 1475 1473 1475 1484 1488 1490 1492 1495 1501
1514 1513 1512 1510 1508 1505 1501 1499 1497 1495 1491 1488 1485 1483 1482 1479 1477 1474 1471 1469 1467 1465 1464 1462 1460 1460 1460 1460 1461 1461 1461 1460 1460 1461 1461 1462 1468 1466 1478 1482 1483 1486 1490
1511 1509 1507 1505 1504 1501 1498 1494 1491 1488 1485 1482 1480 1477 1474 1471 1468 1465 1463 1460 1459 1457 1454 1453 1451 1450 1450 1450 1451 1451 1451 1450 1450 1451 1453 1457 1459 1456 1469 1475 1474 1477 1479
1508 1507 1505 1502 1500 1497 1494 1491 1487 1483 1480 1476 1473 1470 1466 1463 1461 1458 1455 1453 1451 1449 1447 1445 1443 1441 1441 1441 1442 1442 1442 1442 1444 1446 1448 1450 1451 1451 1453 1461 1455 1463 1467
1505 1504 1502 1500 1497 1493 1490 1486 1483 1479 1474 1471 1466 1463 1460 1457 1452 1449 1446 1445 1444 1442 1440 1437 1436 1434 1432 1433 1435 1435 1435 1436 1437 1439 1439 1441 1444 1445 1443 1441 1442 1448 1455
1503 1501 1499 1496 1493 1490 1487 1483 1479 1475 1470 1465 1461 1458 1454 1451 1446 1442 1439 1438 1436 1434 1432 1430 1428 1426 1425 1425 1427 1428 1429 1430 1431 1430 1429 1430 1433 1431 1430 1432 1433 1439 1445